• In Portugal
  • List of Countries
  • For 7 days
  • Water Temperature
  • Satellite Maps
  • Weather Map
  • Weather Widgets
  • user-avatar
    Login

    Hourly Weather Malanje

    Today, 23 September, Sunday

    Time Temperature Precipitation Wind Pressure Humidity
    00:00 +25°C° 0 mm 2 mps 664 mmHg 59%
    01:00 +24°C° 0 mm 2 mps 664 mmHg 62%
    02:00 +23°C° 0 mm 2 mps 664 mmHg 66%
    03:00 +23°C° 0 mm 1 mps 664 mmHg 70%
    04:00 +22°C° 0 mm 1 mps 664 mmHg 73%
    05:00 +22°C° 0 mm 1 mps 664 mmHg 72%
    06:00 +23°C° 0 mm 1 mps 664 mmHg 71%
    07:00 +23°C° 0 mm 1 mps 665 mmHg 70%
    08:00 +27°C° 0 mm 1 mps 666 mmHg 57%
    09:00 +31°C° 0 mm 1 mps 666 mmHg 45%
    10:00 +35°C° 0 mm 1 mps 667 mmHg 32%
    11:00 +35°C° 0 mm 1 mps 667 mmHg 29%
    12:00 +35°C° 0 mm 1 mps 666 mmHg 25%
    13:00 +35°C° 0 mm 1 mps 665 mmHg 22%
    14:00 +35°C° 0 mm 1 mps 665 mmHg 23%
    15:00 +34°C° 0 mm 1 mps 664 mmHg 23%
    16:00 +33°C° 0 mm 1 mps 664 mmHg 24%
    17:00 +32°C° 0 mm 1 mps 664 mmHg 29%
    18:00 +31°C° 0 mm 2 mps 664 mmHg 33%
    19:00 +29°C° 0 mm 3 mps 664 mmHg 38%
    20:00 +28°C° 0 mm 3 mps 664 mmHg 44%
    21:00 +27°C° 0 mm 3 mps 664 mmHg 51%
    22:00 +26°C° 0 mm 3 mps 665 mmHg 57%
    23:00 +25°C° 0 mm 3 mps 664 mmHg 62%

    Tomorrow, 24 September, Monday

    Time Temperature Precipitation Wind Pressure Humidity
    00:00 +24°C° 0 mm 3 mps 664 mmHg 66%
    01:00 +22°C° 0 mm 3 mps 664 mmHg 71%
    02:00 +21°C° 0 mm 3 mps 664 mmHg 75%
    03:00 +21°C° 0 mm 3 mps 663 mmHg 79%
    04:00 +20°C° 0 mm 3 mps 663 mmHg 82%
    05:00 +20°C° 0 mm 3 mps 663 mmHg 81%
    06:00 +20°C° 0 mm 3 mps 664 mmHg 80%
    07:00 +20°C° 0 mm 3 mps 664 mmHg 78%
    08:00 +24°C° 0 mm 3 mps 665 mmHg 67%
    09:00 +26°C° 0 mm 3 mps 666 mmHg 57%
    10:00 +29°C° 0 mm 3 mps 667 mmHg 46%
    11:00 +31°C° 0 mm 3 mps 666 mmHg 39%
    12:00 +34°C° 0 mm 3 mps 666 mmHg 33%
    13:00 +37°C° 0 mm 2 mps 665 mmHg 27%
    14:00 +36°C° 0 mm 2 mps 665 mmHg 27%
    15:00 +35°C° 0 mm 2 mps 664 mmHg 27%
    16:00 +35°C° 0 mm 2 mps 664 mmHg 27%
    17:00 +33°C° 0 mm 3 mps 664 mmHg 32%
    18:00 +31°C° 0 mm 3 mps 664 mmHg 36%
    19:00 +29°C° 0 mm 4 mps 664 mmHg 40%
    20:00 +28°C° 0.1 mm 3 mps 665 mmHg 45%
    21:00 +27°C° 0.1 mm 3 mps 665 mmHg 50%
    22:00 +25°C° 0.1 mm 2 mps 666 mmHg 55%
    23:00 +24°C° 0.5 mm 3 mps 665 mmHg 61%

    Day after tomorrow, 25 September, Tuesday

    Time Temperature Precipitation Wind Pressure Humidity
    00:00 +24°C° 0.5 mm 3 mps 665 mmHg 67%
    01:00 +22°C° 0.5 mm 3 mps 665 mmHg 72%
    02:00 +21°C° 0.3 mm 3 mps 664 mmHg 76%
    03:00 +20°C° 0.3 mm 3 mps 664 mmHg 80%
    04:00 +20°C° 0.3 mm 3 mps 664 mmHg 84%
    05:00 +20°C° 0.1 mm 3 mps 664 mmHg 82%
    06:00 +20°C° 0.1 mm 3 mps 665 mmHg 81%
    07:00 +20°C° 0.1 mm 3 mps 665 mmHg 79%
    08:00 +22°C° 0 mm 3 mps 666 mmHg 69%
    09:00 +26°C° 0 mm 3 mps 667 mmHg 59%
    10:00 +28°C° 0 mm 3 mps 667 mmHg 49%
    11:00 +31°C° 0 mm 2 mps 667 mmHg 42%
    12:00 +34°C° 0 mm 2 mps 666 mmHg 35%
    13:00 +37°C° 0 mm 2 mps 666 mmHg 28%
    14:00 +36°C° 0 mm 2 mps 665 mmHg 29%
    15:00 +35°C° 0 mm 2 mps 664 mmHg 29%
    16:00 +34°C° 0 mm 2 mps 664 mmHg 30%
    17:00 +31°C° 0 mm 2 mps 664 mmHg 34%
    18:00 +30°C° 0 mm 2 mps 664 mmHg 38%
    19:00 +28°C° 0 mm 2 mps 664 mmHg 43%
    20:00 +27°C° 0 mm 3 mps 665 mmHg 46%
    21:00 +26°C° 0 mm 3 mps 665 mmHg 48%
    22:00 +25°C° 0 mm 3 mps 665 mmHg 51%
    23:00 +25°C° 0 mm 2 mps 665 mmHg 56%

    26 September, Wednesday

    Time Temperature Precipitation Wind Pressure Humidity
    00:00 +24°C° 0 mm 2 mps 665 mmHg 61%
    01:00 +23°C° 0 mm 1 mps 664 mmHg 66%
    02:00 +23°C° 0.3 mm 1 mps 664 mmHg 70%
    03:00 +21°C° 0.3 mm 2 mps 664 mmHg 74%
    04:00 +20°C° 0.3 mm 2 mps 664 mmHg 77%
    05:00 +20°C° 0.1 mm 2 mps 664 mmHg 78%
    06:00 +20°C° 0.1 mm 2 mps 665 mmHg 78%
    07:00 +20°C° 0.1 mm 2 mps 665 mmHg 78%
    08:00 +25°C° 0 mm 2 mps 666 mmHg 66%
    09:00 +28°C° 0 mm 2 mps 667 mmHg 54%
    10:00 +31°C° 0 mm 1 mps 668 mmHg 42%
    11:00 +33°C° 0 mm 1 mps 667 mmHg 37%
    12:00 +35°C° 0 mm 1 mps 666 mmHg 32%
    13:00 +37°C° 0 mm 1 mps 666 mmHg 27%
    14:00 +36°C° 0 mm 1 mps 665 mmHg 28%
    15:00 +35°C° 0 mm 2 mps 664 mmHg 30%
    16:00 +34°C° 0 mm 2 mps 664 mmHg 32%
    17:00 +31°C° 0.2 mm 2 mps 664 mmHg 37%
    18:00 +30°C° 0.2 mm 2 mps 664 mmHg 42%
    19:00 +28°C° 0.2 mm 3 mps 664 mmHg 47%
    20:00 +27°C° 0.1 mm 2 mps 665 mmHg 52%
    21:00 +26°C° 0.1 mm 2 mps 665 mmHg 56%
    22:00 +25°C° 0.1 mm 2 mps 665 mmHg 61%
    23:00 +24°C° 0.2 mm 2 mps 665 mmHg 65%

    27 September, Thursday

    Time Temperature Precipitation Wind Pressure Humidity
    00:00 +23°C° 0.2 mm 2 mps 664 mmHg 69%
    01:00 +21°C° 0.2 mm 2 mps 664 mmHg 73%
    02:00 +21°C° 0.6 mm 2 mps 664 mmHg 77%
    03:00 +20°C° 0.6 mm 2 mps 664 mmHg 80%
    04:00 +20°C° 0.6 mm 2 mps 663 mmHg 84%
    05:00 +20°C° 0.7 mm 2 mps 664 mmHg 83%
    06:00 +20°C° 0.7 mm 2 mps 665 mmHg 83%
    07:00 +20°C° 0.7 mm 2 mps 665 mmHg 83%
    08:00 +24°C° 0.3 mm 2 mps 666 mmHg 72%
    09:00 +26°C° 0.3 mm 2 mps 666 mmHg 62%
    10:00 +29°C° 0.3 mm 2 mps 667 mmHg 51%
    11:00 +31°C° 0 mm 2 mps 666 mmHg 44%
    12:00 +34°C° 0 mm 2 mps 666 mmHg 37%
    13:00 +37°C° 0 mm 2 mps 665 mmHg 30%
    14:00 +36°C° 0 mm 2 mps 664 mmHg 31%
    15:00 +35°C° 0 mm 2 mps 664 mmHg 31%
    16:00 +35°C° 0 mm 2 mps 663 mmHg 31%
    17:00 +32°C° 0.1 mm 2 mps 664 mmHg 36%
    18:00 +30°C° 0.1 mm 2 mps 664 mmHg 40%
    19:00 +28°C° 0.1 mm 2 mps 664 mmHg 45%
    20:00 +27°C° 0 mm 2 mps 664 mmHg 48%
    21:00 +26°C° 0 mm 2 mps 664 mmHg 52%
    22:00 +25°C° 0 mm 3 mps 665 mmHg 56%
    23:00 +24°C° 0.6 mm 3 mps 664 mmHg 62%

    28 September, Friday

    Time Temperature Precipitation Wind Pressure Humidity
    00:00 +23°C° 0.6 mm 2 mps 664 mmHg 69%
    01:00 +21°C° 0.6 mm 2 mps 663 mmHg 76%
    02:00 +21°C° 0.4 mm 2 mps 663 mmHg 79%
    03:00 +20°C° 0.4 mm 2 mps 663 mmHg 82%
    04:00 +20°C° 0.4 mm 2 mps 663 mmHg 85%
    05:00 +20°C° 0.2 mm 2 mps 664 mmHg 84%
    06:00 +20°C° 0.2 mm 2 mps 664 mmHg 83%
    07:00 +20°C° 0.2 mm 2 mps 665 mmHg 82%
    08:00 +24°C° 0 mm 2 mps 665 mmHg 71%
    09:00 +27°C° 0 mm 2 mps 666 mmHg 59%
    10:00 +30°C° 0 mm 2 mps 666 mmHg 47%
    11:00 +33°C° 0 mm 1 mps 666 mmHg 41%
    12:00 +35°C° 0 mm 1 mps 665 mmHg 35%
    13:00 +37°C° 0 mm 1 mps 665 mmHg 29%
    14:00 +36°C° 0 mm 1 mps 664 mmHg 30%
    15:00 +35°C° 0 mm 1 mps 664 mmHg 32%
    16:00 +33°C° 0 mm 1 mps 663 mmHg 33%
    17:00 +32°C° 0.2 mm 2 mps 663 mmHg 38%
    18:00 +30°C° 0.2 mm 2 mps 663 mmHg 43%
    19:00 +29°C° 0.2 mm 2 mps 664 mmHg 48%
    20:00 +27°C° 0.2 mm 2 mps 664 mmHg 55%
    21:00 +26°C° 0.2 mm 2 mps 664 mmHg 62%
    22:00 +24°C° 0.2 mm 2 mps 664 mmHg 68%
    23:00 +24°C° 1 mm 2 mps 664 mmHg 73%
    Show more